Regional Weather Roundup
Issued by NWS New Orleans/Baton Rouge, LA

Home | Current Version | Previous Version | Text Only | Print | Product List | Glossary On
Versions: 1 2 3 4 5 6 7 8 9 10 11 12 13 14 15 16 17 18 19 20 21 22 23 24 25 26 27 28 29 30 31 32 33 34 35 36 37 38 39 40 41 42 43 44 45 46 47 48 49 50
786
ASUS44 KLIX 010410
RWRLIX
NEW ORLEANS REGIONAL WEATHER ROUNDUP
NATIONAL WEATHER SERVICE NEW ORLEANS LA
1100 PM CDT TUE SEP 30 2014

NOTE: "FAIR" INDICATES FEW OR NO CLOUDS BELOW 12,000 FEET WITH NO
      SIGNIFICANT WEATHER AND/OR OBSTRUCTIONS TO VISIBILITY.
      SKY/WX - SKY CONDITION AND SIGNIFICANT WEATHER.
      TMP - AIR TEMPERATURE.     DP    - DEWPOINT TEMPERATURE.
      RH  - RELATIVE HUMIDITY.   PRES  - PRESSURE.
      HI  - HEAT INDEX.          WCI   - WIND CHILL INDEX.

*  THESE STATIONS ARE NOT NWS OR FAA STATIONS AND ARE NOT UNDER
   NWS QUALITY CONTROL.

LAZ038-040-048-061>063-065>067-069-010500-
SOUTHEAST LOUISIANA

CITY           SKY/WX    TMP DP  RH WIND       PRES   REMARKS
N.O. AUDUBON     N/A     78  75  89 MISG        N/A
N.O. INTL ARPT PTCLDY    77  72  84 SE6       29.88R
N.O. LAKEFRONT CLEAR     77  72  84 SE7       29.89R
N.O. DOWNTOWN*   N/A     77  70  78 SE6       29.89S
SLIDELL        CLEAR     72  70  93 CALM      29.88S
BATON ROUGE    CLEAR     75  71  87 E5        29.87S
BOOTHVILLE     CLEAR     77  74  90 E6        29.89S
BELLE CHASSE   PTCLDY    77  71  82 SE5       29.88S
BOGALUSA*        N/A     73  70  88 CALM      29.91R
GALLIANO*      NOT AVBL
NEW ROADS*       N/A     76  70  82 CALM      29.87R
GONZALES*        N/A     76  76  99 E3        29.87S
HAMMOND*       CLEAR     75  70  83 E3        29.90S
HOUMA*         CLEAR    N/A N/A N/A E3        29.87S
PORT FOURCHON* CLOUDY    81  73  78 SE9G17    29.90F

$$

MSZ070-080>082-010500-
SOUTHERN MISSISSIPPI

CITY           SKY/WX    TMP DP  RH WIND       PRES   REMARKS
MCCOMB         CLEAR     74  70  87 SE5       29.90S
GULFPORT       PTCLDY    76  70  82 E7        29.88S
BILOXI         CLEAR     76  70  81 E3        29.89S
PASCAGOULA     CLEAR     67  66  97 CALM      29.90R FOG

$$

COASTAL OBSERVATIONS
LAKE AND NEARSHORE STATIONS

STATION/POSITION TIME  TEMP    WIND        PRES    WAVE
                       AIR SEA DIR/SP/G            HT/PER
                 (UTC) (F)     (DEG/KT/KT) (MB)    (FT/S)
PASCAGOULA       0400   78     120/  4/  6 1011.9
WAVELAND YACHT   0400   78     140/  9/ 11 1011.2
GRAND ISLE       0400   79 83  120/  4/  9 1012.3
SOUTHWEST PASS   0400   80 86  100/ 16/ 17 1012.0
NEW CANAL        0400   77 78   CALM  /  2 1012.2
SHELL BEACH      0400   78 76  120/  8/ 10 1011.8

OFFSHORE STATIONS

STATION/POSITION TIME  TEMP    WIND        PRES    WAVE
                       AIR SEA DIR/SP/G            HT/PER
                 (UTC) (F)     (DEG/KT/KT) (MB)    (FT/S)
64 S DAUPHIN ISL 0252   79 82  100/ 12/ 14 1012.5    2/ 5

$$




USA.gov is the U.S. government's official web portal to all federal, state and local government web resources and services.